Location: Praha
(50.0755°N, 14.4378°E)
Time: 15:35:41
(UTC+01:00)

ISS - Pass Details

Date: 25 January 2020
Orbit: 415 x 422 km, 51.6° (Epoch: 26 February)

Event Time Altitude Azimuth Distance (km) Brightness Sun altitude
Rises 19:09:34 0° 258° (WSW) 2,376 1.5 -23.2°
Reaches altitude 10° 19:11:40 10° 260° (W) 1,511 0.1 -23.5°
Enters shadow 19:14:05 43° 268° (W) 606 -2.6 -23.9°
